Location: Clermont
(50.2608°N, 4.3172°E)
Time: 08:04:33
(UTC+00:00)

Okean 1 - Pass Details

Date: 13 August 2020
Orbit: 539 x 555 km, 82.5° (Epoch: 26 September)

Event Time Altitude Azimuth Distance (km) Brightness Sun altitude
Rises 19:55:39 0° 358° (N) 2,745 7.4 -8.0°
Reaches altitude 10° 19:58:03 10° 9° (N) 1,847 6.4 -8.3°
Maximum altitude 20:01:38 29° 71° (ENE) 1,040 4.4 -8.7°
Enters shadow 20:04:46 12° 129° (SE) 1,692 5.1 -9.1°
